QPF
0.00 0.00 0.00 0.00 0.00 0.00 0.00 0.00 0.00 0.00 0.00 0.00 0.00 0.00 0.00 0.00 0.00 0.00 0.00 0.00 0.00 0.00 0.00 0.00 0.00 0.00 0.00 0.00 0.00 0.00 0.00 0.00 0.00 0.00 0.04 0.17 0.18 0.05 0.01 0.00 0.00 0.00 0.00 0.00
0.00 0.00 0.00 0.00 0.00 0.00 0.00 0.00 0.00 0.00 0.00 0.00 0.00 0.00 0.00 0.00 0.00 0.00 0.00 0.00 0.00 0.00 0.00 0.00 0.00 0.00 0.00 0.00 0.00 0.00 0.00 0.00 0.00 0.00 0.04 0.13 0.17 0.12 0.07 0.02 0.00 0.00 0.00 0.00
0.00 0.00 0.00 0.00 0.00 0.00 0.00 0.00 0.00 0.00 0.00 0.00 0.00 0.00 0.00 0.00 0.00 0.00 0.00 0.00 0.00 0.00 0.00 0.00 0.00 0.00 0.00 0.00 0.00 0.00 0.00 0.00 0.00 0.00 0.07 0.13 0.14 0.15 0.11 0.05 0.01 0.01 0.00 0.00
0.00 0.00 0.00 0.00 0.00 0.00 0.00 0.00 0.00 0.00 0.00 0.00 0.00 0.00 0.00 0.00 0.00 0.00 0.00 0.00 0.00 0.00 0.00 0.00 0.00 0.00 0.00 0.00 0.00 0.00 0.00 0.00 0.00 0.00 0.04 0.09 0.10 0.10 0.05 0.03 0.00 0.00 0.00 0.00
0.00 0.00 0.00 0.00 0.00 0.00 0.00 0.00 0.00 0.00 0.00 0.00 0.00 0.00 0.00 0.00 0.00 0.00 0.00 0.00 0.00 0.00 0.00 0.00 0.00 0.00 0.00 0.00 0.00 0.00 0.00 0.00 0.00 0.00 0.01 0.04 0.06 0.04 0.04 0.01 0.00 0.01 0.00 0.00
0.00 0.00 0.00 0.00 0.00 0.00 0.00 0.00 0.00 0.00 0.00 0.00 0.00 0.00 0.00 0.00 0.00 0.00 0.00 0.00 0.00 0.00 0.00 0.00 0.00 0.00 0.00 0.00 0.00 0.00 0.00 0.00 0.00 0.01 0.01 0.00 0.00 0.01 0.01 0.01 0.01 0.01 0.02 0.01
0.00 0.00 0.00 0.00 0.00 0.00 0.00 0.00 0.00 0.00 0.00 0.00 0.00 0.00 0.00 0.00 0.00 0.00 0.00 0.00 0.00 0.00 0.00 0.00 0.00 0.00 0.00 0.00 0.00 0.00 0.00 0.01 0.02 0.02 0.01 0.01 0.00 0.01 0.01 0.02 0.01 0.00 0.00 0.00
0.03 0.01 0.00 0.00 0.00 0.00 0.00 0.00 0.00 0.00 0.00 0.00 0.00 0.00 0.00 0.00 0.00 0.00 0.00 0.00 0.00 0.00 0.00 0.00 0.00 0.00 0.00 0.00 0.00 0.00 0.00 0.01 0.02 0.01 0.01 0.01 0.00 0.00 0.01 0.03 0.02 0.02 0.00 0.00
0.00 0.00 0.00 0.00 0.00 0.00 0.00 0.00 0.00 0.00 0.00 0.00 0.00 0.00 0.00 0.00 0.00 0.00 0.00 0.00 0.00 0.00 0.00 0.00 0.00 0.00 0.00 0.00 0.00 0.00 0.00 0.00 0.00 0.00 0.00 0.00 0.00 0.00 0.00 0.02 0.03 0.01 0.00 0.00
0.01 0.02 0.01 0.00 0.00 0.00 0.00 0.00 0.00 0.00 0.00 0.00 0.00 0.00 0.00 0.00 0.00 0.00 0.00 0.00 0.00 0.00 0.00 0.00 0.00 0.00 0.00 0.00 0.00 0.01 0.01 0.00 0.00 0.00 0.00 0.00 0.00 0.00 0.00 0.00 0.00 0.00 0.00 0.00
0.00 0.00 0.01 0.01 0.02 0.02 0.03 0.02 0.01 0.01 0.00 0.00 0.00 0.00 0.00 0.00 0.00 0.00 0.00 0.00 0.00 0.00 0.00 0.00 0.00 0.00 0.00 0.01 0.02 0.01 0.00 0.00 0.00 0.00 0.00 0.01 0.00 0.00 0.00 0.00 0.00 0.00 0.00 0.00
0.00 0.01 0.01 0.01 0.01 0.02 0.03 0.03 0.01 0.01 0.01 0.01 0.01 0.00 0.00 0.00 0.00 0.00 0.00 0.00 0.00 0.00 0.00 0.00 0.00 0.00 0.00 0.01 0.00 0.00 0.00 0.00 0.00 0.00 0.00 0.00 0.00 0.00 0.00 0.00 0.00 0.00 0.00 0.00
0.01 0.01 0.01 0.00 0.00 0.00 0.01 0.00 0.00 0.00 0.00 0.00 0.00 0.00 0.00 0.00 0.00 0.00 0.00 0.00 0.00 0.00 0.00 0.00 0.00 0.00 0.00 0.00 0.00 0.00 0.00 0.00 0.00 0.00 0.00 0.00 0.00 0.00 0.00 0.00 0.00 0.00 0.00 0.00
0.01 0.02 0.01 0.00 0.00 0.00 0.00 0.00 0.00 0.00 0.00 0.00 0.00 0.00 0.00 0.00 0.00 0.00 0.00 0.00 0.00 0.00 0.00 0.00 0.00 0.00 0.00 0.00 0.00 0.00 0.00 0.00 0.00 0.00 0.00 0.00 0.00 0.00 0.00 0.01 0.00 0.00 0.00 0.00
0.00 0.00 0.01 0.01 0.01 0.00 0.00 0.00 0.00 0.00 0.00 0.00 0.00 0.00 0.00 0.00 0.00 0.00 0.00 0.00 0.00 0.00 0.00 0.00 0.00 0.00 0.00 0.00 0.00 0.00 0.00 0.00 0.00 0.00 0.00 0.01 0.00 0.00 0.00 0.01 0.00 0.00 0.00 0.00
0.00 0.00 0.00 0.00 0.00 0.00 0.00 0.00 0.00 0.00 0.00 0.00 0.00 0.00 0.00 0.00 0.00 0.00 0.00 0.00 0.00 0.00 0.00 0.01 0.01 0.00 0.00 0.00 0.00 0.00 0.01 0.02 0.01 0.00 0.00 0.00 0.00 0.00 0.00 0.00 0.01 0.00 0.00 0.00
0.00 0.00 0.00 0.00 0.00 0.00 0.00 0.00 0.00 0.00 0.00 0.00 0.00 0.00 0.00 0.00 0.00 0.00 0.00 0.00 0.00 0.00 0.00 0.01 0.01 0.00 0.00 0.00 0.01 0.00 0.01 0.01 0.00 0.00 0.00 0.00 0.00 0.00 0.00 0.00 0.00 0.00 0.00 0.00
0.00 0.00 0.00 0.00 0.00 0.00 0.00 0.00 0.00 0.00 0.00 0.00 0.00 0.00 0.00 0.00 0.00 0.00 0.00 0.00 0.00 0.00 0.00 0.00 0.00 0.00 0.01 0.03 0.04 0.02 0.01 0.00 0.00 0.00 0.00 0.00 0.00 0.00 0.00 0.00 0.00 0.00 0.00 0.00
0.00 0.00 0.00 0.00 0.00 0.00 0.00 0.00 0.00 0.00 0.00 0.00 0.00 0.00 0.00 0.00 0.00 0.00 0.00 0.00 0.00 0.00 0.00 0.00 0.01 0.01 0.02 0.01 0.01 0.01 0.00 0.00 0.00 0.00 0.00 0.00 0.00 0.00 0.00 0.01 0.00 0.00 0.00 0.00
0.00 0.00 0.00 0.00 0.00 0.00 0.00 0.00 0.00 0.00 0.00 0.00 0.00 0.00 0.00 0.00 0.00 0.00 0.00 0.00 0.00 0.00 0.00 0.00 0.00 0.00 0.00 0.00 0.00 0.00 0.00 0.00 0.00 0.00 0.00 0.00 0.00 0.00 0.00 0.00 0.00 0.00 0.00 0.00
0.00 0.00 0.00 0.00 0.00 0.00 0.00 0.00 0.00 0.00 0.00 0.00 0.00 0.00 0.00 0.00 0.00 0.00 0.00 0.00 0.00 0.00 0.00 0.00 0.00 0.00 0.00 0.00 0.00 0.00 0.00 0.00 0.00 0.00 0.00 0.00 0.00 0.00 0.00 0.00 0.00 0.00 0.00 0.00
0.00 0.00 0.00 0.00 0.00 0.00 0.00 0.00 0.00 0.00 0.00 0.00 0.00 0.00 0.00 0.00 0.00 0.00 0.00 0.00 0.00 0.00 0.00 0.00 0.00 0.00 0.00 0.00 0.00 0.00 0.00 0.00 0.00 0.00 0.00 0.00 0.00 0.00 0.00 0.00 0.00 0.00 0.00 0.00
0.00 0.00 0.00 0.00 0.00 0.00 0.00 0.00 0.00 0.00 0.00 0.00 0.00 0.00 0.00 0.00 0.00 0.00 0.00 0.00 0.00 0.00 0.00 0.00 0.00 0.00 0.00 0.00 0.00 0.00 0.00 0.00 0.00 0.00 0.00 0.00 0.00 0.00 0.00 0.00 0.00 0.00 0.00 0.00
0.00 0.00 0.00 0.00 0.00 0.00 0.00 0.00 0.00 0.00 0.00 0.00 0.00 0.00 0.00 0.00 0.00 0.00 0.00 0.00 0.00 0.00 0.00 0.00 0.00 0.00 0.00 0.00 0.00 0.00 0.00 0.00 0.00 0.00 0.00 0.00 0.00 0.00 0.00 0.00 0.00 0.00 0.00 0.00
0.00 0.00 0.00 0.00 0.00 0.00 0.00 0.00 0.00 0.00 0.00 0.00 0.00 0.00 0.00 0.00 0.00 0.00 0.00 0.00 0.00 0.00 0.00 0.00 0.00 0.00 0.00 0.00 0.00 0.00 0.00 0.00 0.00 0.00 0.00 0.00 0.00 0.00 0.00 0.00 0.00 0.00 0.00 0.00
0.00 0.00 0.00 0.00 0.00 0.00 0.00 0.00 0.00 0.00 0.00 0.00 0.00 0.00 0.00 0.00 0.00 0.00 0.00 0.00 0.00 0.00 0.00 0.00 0.00 0.00 0.00 0.00 0.00 0.00 0.00 0.00 0.00 0.00 0.00 0.00 0.00 0.00 0.00 0.00 0.00 0.00 0.00 0.00
0.00 0.00 0.00 0.00 0.00 0.00 0.00 0.00 0.00 0.00 0.00 0.00 0.00 0.00 0.00 0.00 0.00 0.00 0.00 0.00 0.00 0.00 0.00 0.00 0.00 0.00 0.00 0.00 0.00 0.00 0.00 0.00 0.00 0.00 0.00 0.00 0.00 0.00 0.00 0.00 0.00 0.00 0.00 0.00
MSLP
994.82 994.44 994.62 994.68 994.60 994.75 994.76 994.58 994.50 994.63 994.81 994.60 994.90 995.07 995.22 995.27 996.27 997.15 997.75 998.33 998.86 999.32 999.91 1000.73 1001.64 1002.39 1002.99 1003.61 1004.26 1004.82 1005.49 1006.29 1007.41 1008.84 1009.77 1010.85 1011.61 1012.27 1012.99 1013.03 1015.30 1015.63 1015.11 1014.97
994.92 994.27 993.87 993.48 993.82 993.89 993.92 994.05 994.26 994.08 993.86 994.02 994.08 994.75 995.00 995.22 995.97 996.63 997.12 997.63 998.13 998.62 999.56 1000.27 1001.05 1001.88 1002.72 1003.43 1003.91 1004.65 1005.38 1006.34 1007.45 1008.35 1009.28 1010.09 1010.92 1011.39 1011.64 1013.16 1014.32 1015.14 1014.65 1014.98
995.05 994.26 994.13 993.17 992.79 993.22 993.60 993.66 993.49 993.30 993.21 993.33 993.62 994.27 994.45 994.78 995.20 995.85 996.25 996.66 997.33 997.95 999.00 1000.10 1000.94 1001.69 1002.35 1003.07 1003.85 1004.64 1005.43 1006.22 1007.06 1007.94 1008.66 1009.25 1009.90 1010.84 1011.65 1011.76 1011.26 1012.73 1013.53 1013.92
996.32 995.36 994.09 992.75 992.59 992.60 992.68 993.06 993.40 993.44 993.41 993.35 993.45 994.23 994.97 995.22 995.02 995.74 996.26 996.83 997.84 998.72 999.45 1000.13 1000.67 1001.29 1002.09 1002.98 1003.75 1004.52 1005.31 1006.13 1006.93 1007.67 1008.25 1008.85 1009.42 1010.23 1010.82 1011.19 1011.27 1011.84 1012.61 1012.75
997.73 996.19 994.45 993.34 993.15 993.12 992.92 993.14 994.09 993.90 993.81 993.56 994.60 994.97 995.27 995.51 995.19 995.39 996.08 996.67 997.36 998.18 999.08 999.86 1000.50 1001.26 1002.10 1002.73 1003.22 1004.15 1004.96 1005.81 1006.80 1007.33 1007.70 1008.49 1008.88 1009.31 1010.34 1010.80 1010.75 1011.09 1011.77 1012.07
998.92 998.02 995.56 994.64 994.90 994.66 994.22 993.63 994.40 994.57 994.26 994.40 995.12 995.07 995.33 996.17 995.34 995.66 996.13 996.63 997.29 998.28 999.02 999.70 1000.34 1000.77 1001.36 1002.21 1003.07 1003.90 1004.74 1005.39 1006.06 1007.07 1007.75 1008.02 1008.89 1009.15 1009.72 1010.30 1010.76 1010.75 1011.40 1011.72
999.60 998.92 996.58 996.60 996.09 995.54 994.70 994.10 994.19 994.49 994.40 994.79 995.51 995.83 996.38 996.37 996.32 996.25 997.16 997.63 997.83 998.20 998.94 999.70 1000.32 1000.81 1001.43 1002.22 1002.96 1003.80 1004.47 1005.34 1006.10 1006.30 1006.33 1006.74 1007.90 1008.78 1009.26 1009.60 1009.99 1010.06 1010.12 1010.46
1001.22 999.74 998.14 997.71 996.59 995.83 995.07 995.21 994.77 994.57 994.81 995.81 996.49 996.57 996.99 997.23 997.51 997.13 997.16 998.31 998.54 998.79 999.74 1000.16 1000.41 1000.45 1001.35 1002.18 1002.87 1003.73 1004.85 1005.19 1005.85 1006.30 1006.94 1007.28 1007.96 1008.59 1009.10 1009.57 1009.77 1009.90 1010.24 1010.36
1000.99 1000.56 999.77 999.04 998.55 997.30 996.60 996.39 996.33 994.84 995.81 996.81 997.07 997.70 997.58 998.06 998.42 998.41 998.52 998.44 999.35 999.73 1000.25 1000.64 1000.96 1001.10 1001.53 1002.53 1003.53 1004.22 1004.07 1005.30 1005.68 1005.84 1006.70 1007.08 1007.54 1007.85 1008.25 1008.98 1009.38 1009.38 1009.39 1009.58
1000.31 1001.12 1000.16 999.68 999.28 998.25 997.97 997.78 997.84 997.03 997.15 997.25 997.27 998.21 998.32 998.52 998.99 999.19 999.74 999.50 999.85 1000.46 1000.83 1001.35 1001.87 1002.08 1002.29 1003.14 1003.65 1004.18 1004.50 1005.77 1006.00 1006.01 1006.38 1006.56 1006.99 1007.62 1007.96 1008.39 1009.02 1009.30 1009.60 1009.39
1000.17 1000.54 1000.79 1000.25 1000.18 999.63 999.33 998.93 998.36 998.39 998.58 998.71 998.15 998.89 999.29 999.10 999.63 999.58 999.93 999.85 1000.36 1000.61 1000.89 1001.47 1001.94 1002.47 1002.98 1003.14 1003.61 1003.26 1004.17 1005.21 1005.45 1005.75 1006.21 1006.65 1007.71 1008.02 1008.17 1008.39 1009.15 1009.06 1008.89 1008.62
1000.37 1000.33 1000.37 1000.85 1000.84 1000.34 999.96 999.94 999.78 999.29 999.94 1000.16 999.48 999.57 999.94 999.82 999.90 1000.00 1000.47 1000.92 1000.97 1001.23 1001.58 1001.97 1002.35 1002.61 1002.95 1003.23 1004.00 1004.58 1005.17 1005.52 1005.43 1005.84 1006.45 1006.64 1007.73 1008.48 1009.33 1009.43 1009.25 1009.70 1009.43 1009.00
1001.07 1000.40 1000.72 1002.24 1001.77 1001.40 1000.67 1000.84 1000.68 1000.23 1000.22 1001.05 1000.95 1000.56 999.92 999.98 1000.44 1000.61 1000.55 1000.99 1001.11 1001.38 1001.75 1001.95 1002.37 1002.86 1003.21 1003.73 1004.28 1004.79 1005.17 1005.56 1005.68 1005.91 1006.12 1006.72 1007.81 1008.14 1008.72 1010.10 1009.99 1010.10 1009.89 1009.74
1001.85 1001.33 1002.54 1002.56 1002.41 1002.30 1001.58 1001.66 1001.61 1001.07 1001.45 1001.71 1001.85 1001.47 1001.39 1001.33 1001.29 1001.46 1001.50 1001.68 1001.51 1001.31 1001.76 1002.44 1002.53 1002.94 1003.54 1004.08 1004.56 1004.93 1005.02 1005.37 1005.67 1005.81 1006.23 1007.06 1007.78 1008.16 1008.29 1008.75 1008.90 1009.46 1010.14 1010.26
1003.29 1003.05 1003.16 1003.28 1002.51 1002.63 1003.09 1002.99 1002.39 1002.51 1002.46 1002.63 1002.82 1002.49 1002.23 1002.00 1001.94 1001.80 1001.69 1001.82 1001.86 1001.89 1001.84 1002.23 1002.50 1002.99 1003.61 1003.91 1004.21 1004.57 1004.95 1005.31 1005.71 1005.90 1006.12 1006.65 1007.37 1007.65 1007.90 1008.40 1008.51 1008.94 1009.95 1010.74
1004.10 1003.83 1003.93 1004.23 1004.52 1003.90 1004.30 1003.75 1003.13 1003.60 1003.23 1003.30 1003.30 1002.91 1002.83 1002.86 1002.81 1002.16 1001.89 1001.73 1002.15 1002.06 1002.30 1002.28 1002.67 1003.20 1003.64 1004.02 1004.34 1004.60 1004.95 1005.27 1005.51 1005.90 1006.53 1007.02 1007.24 1007.36 1007.80 1008.04 1008.46 1008.63 1009.13 1009.65
1004.82 1005.05 1005.22 1005.19 1005.04 1004.74 1004.50 1004.10 1003.78 1003.61 1003.55 1003.59 1003.48 1003.50 1003.29 1002.98 1002.46 1002.24 1002.51 1002.55 1002.68 1002.58 1002.68 1002.55 1002.82 1003.29 1003.73 1004.10 1004.37 1004.73 1005.24 1005.75 1005.94 1006.06 1006.24 1006.38 1006.66 1006.92 1007.37 1007.64 1007.96 1008.28 1008.73 1009.21
1005.87 1005.74 1005.66 1005.62 1005.42 1005.01 1004.82 1004.63 1004.20 1004.18 1004.41 1004.22 1004.15 1004.04 1003.68 1003.20 1003.14 1002.93 1002.80 1002.68 1002.74 1002.84 1002.90 1003.31 1003.46 1003.54 1004.06 1004.40 1004.73 1005.11 1005.13 1005.46 1005.78 1005.92 1006.21 1006.48 1006.79 1007.13 1007.37 1007.38 1007.48 1007.98 1008.69 1009.95
1005.51 1005.81 1005.50 1005.37 1005.49 1005.39 1005.23 1005.04 1004.99 1004.77 1004.58 1004.44 1004.12 1004.00 1003.97 1003.77 1003.76 1003.35 1003.05 1003.08 1002.97 1003.11 1003.69 1003.86 1004.09 1004.07 1004.42 1004.87 1005.11 1005.20 1005.23 1005.50 1005.86 1006.18 1006.25 1006.60 1006.87 1006.92 1007.05 1007.24 1007.53 1008.06 1008.45 1009.05
1005.88 1005.86 1005.67 1005.34 1005.31 1005.19 1005.18 1005.09 1004.58 1004.46 1004.65 1004.61 1004.78 1004.77 1004.48 1004.21 1004.01 1003.74 1003.50 1003.58 1003.92 1004.01 1004.25 1004.38 1004.28 1004.51 1004.80 1005.31 1005.38 1004.93 1005.25 1005.54 1005.86 1006.16 1006.36 1006.37 1006.45 1006.63 1006.95 1007.14 1007.23 1007.70 1008.18 1008.58
1006.13 1005.55 1005.52 1005.35 1005.22 1005.14 1005.19 1004.96 1005.15 1005.12 1005.18 1005.24 1005.06 1004.89 1004.68 1004.42 1004.19 1003.96 1003.73 1003.65 1004.52 1004.67 1004.63 1004.71 1004.53 1004.77 1005.09 1005.41 1005.27 1005.26 1005.59 1005.82 1005.90 1006.06 1006.32 1006.40 1006.54 1006.48 1006.72 1006.84 1007.15 1007.39 1007.64 1008.07
1006.11 1006.01 1005.74 1005.77 1005.52 1005.31 1005.40 1005.48 1005.30 1005.34 1005.40 1005.38 1005.23 1004.92 1004.62 1004.40 1004.31 1004.25 1004.47 1004.64 1004.83 1005.23 1004.70 1004.66 1004.87 1005.37 1005.39 1005.67 1005.47 1005.60 1005.76 1006.02 1006.18 1006.31 1006.43 1006.56 1006.68 1006.67 1006.71 1006.81 1006.89 1007.04 1007.21 1007.44
1006.40 1006.34 1006.24 1006.16 1005.95 1005.76 1005.66 1005.76 1005.74 1005.58 1005.32 1005.20 1005.06 1004.84 1004.75 1004.51 1004.56 1004.39 1004.28 1004.82 1004.87 1005.05 1004.79 1004.71 1005.45 1005.87 1005.99 1005.58 1005.67 1005.74 1005.93 1006.10 1006.20 1006.37 1006.49 1006.55 1006.62 1006.56 1006.48 1006.52 1006.69 1006.85 1006.95 1007.17
1006.71 1006.89 1006.47 1006.25 1005.95 1005.80 1005.94 1005.95 1005.76 1005.69 1005.48 1005.13 1004.97 1004.94 1004.75 1004.38 1004.15 1004.48 1004.72 1005.01 1005.25 1005.51 1005.11 1005.01 1005.67 1006.17 1006.19 1005.68 1005.67 1005.66 1005.82 1006.01 1006.11 1006.10 1006.23 1006.49 1006.31 1006.27 1006.22 1006.37 1006.49 1006.54 1006.75 1007.20
1006.84 1006.54 1006.27 1006.01 1005.87 1005.90 1005.98 1005.95 1005.86 1005.76 1005.68 1005.32 1005.13 1004.95 1004.94 1004.88 1004.90 1004.75 1004.81 1004.80 1005.30 1005.39 1005.19 1005.52 1005.76 1005.99 1005.80 1005.29 1005.32 1005.45 1005.61 1005.70 1005.72 1005.82 1005.88 1005.96 1005.97 1006.00 1006.03 1006.12 1006.19 1006.33 1006.49 1006.62
1006.91 1006.75 1006.83 1006.64 1006.49 1006.26 1006.20 1006.20 1005.82 1005.68 1005.47 1005.20 1005.02 1004.93 1004.89 1004.89 1004.82 1004.81 1004.67 1004.74 1004.78 1004.79 1004.51 1004.31 1004.74 1005.06 1004.86 1004.79 1004.91 1005.10 1005.23 1005.25 1005.56 1005.62 1005.54 1005.50 1005.63 1005.80 1005.75 1005.81 1005.84 1005.94 1006.06 1006.18
1007.78 1007.70 1007.11 1006.86 1006.92 1006.77 1006.52 1006.40 1005.94 1005.65 1005.58 1005.42 1005.12 1004.91 1004.90 1004.77 1004.60 1004.59 1004.45 1004.26 1004.16 1004.06 1003.88 1003.76 1003.87 1004.28 1004.14 1004.15 1004.38 1004.52 1004.72 1004.82 1004.99 1004.91 1005.01 1005.05 1005.19 1005.25 1005.25 1005.30 1005.40 1005.54 1005.68 1005.77
Thickness
5761 5772 5768 5764 5769 5773 5768 5786 5775 5796 5794 5824 5837 5846 5855 5865 5858 5852 5854 5854 5856 5855 5853 5849 5843 5838 5835 5831 5827 5823 5816 5808 5795 5781 5772 5760 5749 5738 5719 5722 5698 5702 5703 5704
5740 5762 5767 5761 5770 5775 5779 5789 5788 5800 5798 5837 5848 5850 5851 5854 5852 5849 5853 5855 5858 5857 5851 5847 5843 5836 5831 5826 5824 5819 5810 5799 5790 5779 5768 5759 5750 5740 5731 5712 5701 5686 5698 5690
5729 5753 5748 5739 5766 5772 5776 5787 5796 5785 5814 5839 5838 5839 5849 5856 5855 5854 5857 5859 5859 5857 5851 5843 5836 5832 5825 5822 5819 5811 5802 5794 5785 5775 5765 5757 5751 5739 5728 5722 5721 5702 5694 5691
5719 5727 5702 5761 5786 5790 5788 5794 5799 5804 5816 5829 5840 5842 5840 5847 5853 5851 5853 5853 5848 5845 5840 5835 5832 5828 5824 5817 5809 5801 5794 5786 5778 5769 5762 5754 5744 5734 5727 5720 5713 5704 5692 5692
5694 5711 5740 5756 5768 5769 5771 5779 5785 5796 5811 5823 5824 5830 5829 5838 5849 5851 5849 5849 5847 5843 5836 5830 5826 5822 5816 5809 5805 5796 5787 5779 5770 5764 5757 5748 5741 5734 5720 5715 5711 5702 5693 5688
5688 5683 5705 5743 5751 5764 5771 5767 5780 5789 5801 5810 5812 5814 5825 5826 5843 5844 5846 5845 5840 5834 5830 5826 5821 5820 5813 5805 5796 5788 5781 5775 5768 5757 5748 5741 5730 5726 5719 5709 5699 5695 5686 5681
5681 5684 5726 5731 5744 5758 5750 5774 5783 5793 5801 5804 5802 5810 5812 5822 5827 5834 5828 5828 5831 5830 5823 5817 5814 5810 5802 5795 5788 5781 5777 5768 5758 5753 5749 5744 5729 5719 5712 5705 5694 5691 5687 5683
5664 5680 5702 5725 5741 5747 5764 5769 5782 5792 5796 5791 5793 5800 5804 5808 5810 5819 5820 5813 5817 5814 5807 5805 5805 5803 5793 5785 5780 5771 5760 5757 5747 5743 5733 5726 5717 5707 5700 5694 5687 5681 5674 5672
5667 5675 5698 5711 5719 5743 5757 5760 5769 5785 5786 5781 5784 5784 5792 5790 5792 5797 5800 5803 5799 5799 5794 5792 5790 5789 5781 5772 5763 5758 5755 5741 5736 5734 5722 5716 5710 5705 5699 5689 5681 5677 5674 5668
5666 5668 5680 5700 5714 5730 5738 5744 5751 5766 5770 5773 5775 5771 5776 5781 5780 5781 5780 5783 5785 5780 5776 5771 5770 5769 5768 5757 5751 5745 5740 5726 5722 5717 5711 5710 5707 5701 5695 5687 5675 5669 5664 5661
5675 5671 5676 5691 5698 5710 5718 5729 5739 5745 5749 5752 5759 5754 5760 5766 5766 5770 5769 5773 5771 5769 5766 5761 5758 5752 5746 5742 5737 5739 5728 5717 5714 5710 5702 5698 5689 5688 5685 5676 5666 5667 5664 5663
5673 5671 5677 5680 5689 5699 5704 5709 5720 5729 5726 5730 5741 5743 5745 5750 5755 5758 5755 5754 5755 5752 5746 5742 5740 5738 5734 5731 5723 5713 5705 5703 5703 5697 5689 5688 5677 5670 5654 5651 5649 5642 5641 5646
5655 5669 5670 5666 5678 5687 5693 5695 5703 5712 5716 5711 5719 5729 5740 5742 5741 5741 5746 5743 5741 5739 5735 5731 5728 5723 5718 5711 5705 5699 5693 5688 5687 5684 5682 5674 5661 5658 5654 5636 5629 5627 5627 5625
5650 5659 5648 5651 5657 5668 5679 5683 5687 5696 5698 5700 5704 5713 5718 5722 5725 5724 5725 5725 5726 5729 5723 5715 5714 5709 5702 5694 5688 5683 5682 5676 5675 5672 5666 5655 5646 5643 5642 5636 5634 5628 5613 5611
5634 5641 5643 5645 5654 5657 5658 5661 5671 5674 5680 5683 5687 5696 5700 5704 5708 5711 5713 5711 5709 5707 5708 5704 5700 5695 5689 5685 5680 5675 5670 5665 5660 5657 5654 5647 5638 5635 5631 5625 5622 5617 5604 5593
5623 5627 5627 5628 5634 5642 5642 5649 5657 5657 5666 5672 5676 5683 5687 5688 5688 5696 5699 5702 5693 5693 5692 5692 5687 5683 5679 5673 5667 5663 5658 5650 5649 5644 5635 5629 5626 5624 5618 5614 5608 5606 5600 5594
5613 5611 5609 5610 5616 5627 5631 5644 5653 5657 5661 5663 5667 5669 5673 5678 5683 5685 5681 5680 5678 5679 5678 5679 5676 5672 5665 5660 5655 5650 5643 5636 5631 5630 5627 5624 5621 5617 5611 5607 5602 5598 5593 5586
5596 5601 5608 5612 5615 5621 5628 5635 5643 5646 5644 5649 5652 5654 5659 5664 5664 5667 5667 5668 5666 5664 5665 5661 5660 5657 5650 5646 5640 5634 5632 5628 5625 5622 5617 5613 5610 5605 5602 5600 5598 5591 5583 5570
5600 5600 5609 5613 5614 5617 5621 5625 5629 5633 5636 5638 5642 5644 5645 5648 5647 5651 5654 5652 5654 5652 5647 5646 5641 5640 5634 5629 5625 5623 5622 5617 5612 5609 5607 5600 5598 5597 5595 5592 5586 5580 5577 5572
5595 5599 5606 5610 5612 5615 5616 5620 5627 5629 5628 5628 5626 5626 5629 5633 5634 5636 5640 5637 5634 5633 5630 5627 5626 5623 5619 5613 5610 5613 5610 5606 5602 5599 5596 5595 5594 5591 5587 5581 5581 5576 5571 5567
5589 5598 5600 5603 5606 5610 5612 5614 5613 5613 5613 5613 5614 5616 5618 5621 5623 5624 5625 5626 5618 5617 5617 5613 5615 5610 5606 5603 5603 5602 5598 5595 5594 5591 5587 5586 5585 5585 5582 5579 5574 5571 5568 5562
5585 5588 5592 5595 5599 5603 5603 5603 5605 5605 5604 5604 5605 5608 5611 5611 5612 5612 5609 5608 5609 5601 5607 5606 5602 5596 5595 5591 5591 5589 5588 5584 5582 5581 5579 5577 5575 5574 5572 5570 5568 5566 5564 5559
5580 5581 5583 5585 5587 5590 5592 5593 5593 5595 5598 5598 5598 5600 5599 5602 5601 5602 5603 5600 5602 5596 5599 5596 5588 5583 5581 5583 5580 5579 5577 5575 5574 5572 5570 5569 5567 5567 5567 5566 5563 5560 5558 5554
5573 5572 5576 5579 5582 5585 5583 5584 5585 5585 5587 5590 5591 5591 5592 5596 5598 5596 5594 5589 5585 5584 5587 5585 5578 5571 5570 5575 5574 5573 5570 5567 5565 5565 5564 5554 5562 5562 5561 5559 5557 5555 5551 5546
5568 5570 5573 5576 5577 5576 5575 5575 5575 5577 5577 5580 5583 5584 5583 5583 5582 5583 5583 5583 5575 5575 5576 5570 5567 5564 5566 5570 5568 5566 5564 5563 5562 5561 5559 5558 5557 5555 5555 5553 5551 5549 5545 5542
5562 5564 5561 5562 5563 5566 5566 5566 5569 5571 5572 5574 5575 5576 5577 5576 5576 5575 5577 5573 5575 5573 5575 5575 5570 5566 5567 5566 5564 5561 5559 5559 5555 5554 5553 5553 5551 5548 5548 5547 5545 5542 5539 5536
5549 5544 5554 5557 5555 5556 5558 5559 5563 5564 5564 5565 5566 5568 5568 5569 5570 5569 5568 5571 5571 5571 5570 5570 5568 5563 5562 5561 5558 5556 5553 5552 5549 5550 5548 5547 5545 5543 5542 5540 5538 5535 5532 5530